Location: Luxembourg
(49.6117°N, 6.1300°E)
Time: 16:29:49
(UTC+01:00)

POLYITAN 1 - Visible Passes

Search period start: 21 March 2019 00:00
Search period end: 31 March 2019 00:00
Orbit: 592 x 612 km, 97.9° (Epoch: 20 March)

Date Brightness Start Highest point End Pass type
(mag) Time Alt. Az. Time Alt. Az. Time Alt. Az.
21 Mar ? 02:12:11 10° N 02:12:22 11° N 02:12:22 11° N visible
22 Mar ? 02:24:12 10° NNW 02:24:24 11° NNW 02:24:24 11° NNW visible
23 Mar ? 00:59:35 10° NNE 00:59:38 10° NNE 00:59:38 10° NNE visible
23 Mar ? 02:36:18 10° NNW 02:36:26 11° NNW 02:36:26 11° NNW visible
24 Mar ? 01:11:21 10° NNE 01:11:40 12° NNE 01:11:40 12° NNE visible
25 Mar ? 01:23:09 10° NNE 01:23:42 13° N 01:23:42 13° N visible
26 Mar ? 01:35:00 10° N 01:35:44 15° N 01:35:44 15° N visible
27 Mar ? 01:46:52 10° N 01:47:46 16° N 01:47:46 16° N visible
28 Mar ? 01:58:47 10° N 01:59:48 16° N 01:59:48 16° N visible
29 Mar ? 00:34:48 10° NNE 00:35:02 11° NNE 00:35:02 11° NNE visible
29 Mar ? 02:10:44 10° N 02:11:50 16° NNW 02:11:50 16° NNW visible
30 Mar ? 00:46:28 10° NNE 00:47:03 14° NNE 00:47:03 14° NNE visible
30 Mar ? 02:22:44 10° N 02:23:51 15° NNW 02:23:51 15° NNW visible
